Weather History for KSBP - January, 2013

Change the Weather History Date:

Thursday, January 31, 2013

  Actual Average Record
Temperature  
Mean Temperature 54 °F -  
Max Temperature 71 °F 63 °F 84 °F (2003)
Min Temperature 37 °F 40 °F 30 °F (1975)
Degree Days  
Heating Degree Days 11    
Growing Degree Days 4 (Base 50)    
Moisture  
Dew Point 42 °F    
Average Humidity 74    
Maximum Humidity 97    
Minimum Humidity 35    
Precipitation  
Precipitation 0.00 in - - ()
Sea Level Pressure  
Sea Level Pressure 30.20 in    
Wind  
Wind Speed 2 mph (NW)    
Max Wind Speed 12 mph    
Max Gust Speed -    
Visibility 10 miles    
Events      
Averages and records for this station are not official NWS values.
T = Trace of Precipitation, MM = Missing Value Source: NWS Daily Summary

Daily Weather History Graph

Daily Weather History Graph

Search for Another Location

Airport or City:

Trip Planner

Search our weather history database for the weather conditions in past years. The results will help you decide how hot, cold, wet, or windy it might be!

Date:

Astronomy

Jan. 31, 2013 Rise Set
Actual Time 7:02 AM PST 5:30 PM PST
Civil Twilight 6:35 AM PST 5:57 PM PST
Nautical Twilight 6:05 AM PST 6:27 PM PST
Astronomical Twilight 5:35 AM PST 6:57 PM PST
Moon 10:24 PM PST (1/31) 9:17 AM PST (1/31)
Length of Visible Light 11h 21m
Length of Day
10h 28m
Waning Gibbous, 79% of the Moon is Illuminated
Jan 31
Waning Gibbous
Feb 3
Last Quarter
Feb 9
New
Feb 17
First Quarter
Feb 25
Full

Hourly Weather History & Observations

Time (PST) Temp. Windchill Dew Point Humidity Pressure Visibility Wind Dir Wind Speed Gust Speed Precip Events Conditions
12:56 AM 41.0 °F 38.0 °F 39.0 °F 93% 30.27 in 10.0 mi SE 4.6 mph - N/A   Clear
1:56 AM 39.0 °F - 37.0 °F 93% 30.26 in 10.0 mi North - - N/A   Clear
2:56 AM 39.0 °F - 37.0 °F 93% 30.25 in 10.0 mi Calm Calm - N/A   Clear
3:56 AM 39.0 °F 36.8 °F 37.0 °F 93% 30.23 in 10.0 mi ESE 3.5 mph - N/A   Clear
4:56 AM 39.0 °F - 37.0 °F 93% 30.22 in 10.0 mi Calm Calm - N/A   Clear
5:56 AM 37.9 °F - 36.0 °F 93% 30.22 in 10.0 mi Calm Calm - N/A   Clear
6:56 AM 37.9 °F - 37.0 °F 97% 30.22 in 10.0 mi Calm Calm - N/A   Clear
7:56 AM 39.9 °F - 37.9 °F 93% 30.23 in 10.0 mi Calm Calm - N/A   Clear
8:56 AM 46.9 °F - 42.1 °F 83% 30.24 in 10.0 mi Calm Calm - N/A   Clear
9:56 AM 55.9 °F - 45.0 °F 67% 30.24 in 10.0 mi Calm Calm - N/A   Clear
10:56 AM 62.1 °F - 45.0 °F 53% 30.24 in 10.0 mi Calm Calm - N/A   Clear
11:56 AM 66.9 °F - 44.1 °F 44% 30.21 in 10.0 mi Calm Calm - N/A   Clear
12:56 PM 70.0 °F - 41.0 °F 35% 30.18 in 10.0 mi Calm Calm - N/A   Clear
1:56 PM 71.1 °F - 48.0 °F 44% 30.16 in 10.0 mi NW 8.1 mph - N/A   Clear
2:56 PM 66.9 °F - 51.1 °F 57% 30.14 in 10.0 mi NW 8.1 mph - N/A   Clear
3:56 PM 64.0 °F - 48.0 °F 56% 30.15 in 10.0 mi NW 10.4 mph - N/A   Clear
4:56 PM 60.1 °F - 44.1 °F 55% 30.15 in 10.0 mi NNW 11.5 mph - N/A   Clear
5:56 PM 55.0 °F - 42.1 °F 62% 30.15 in 10.0 mi NW 8.1 mph - N/A   Clear
6:56 PM 53.1 °F - 42.1 °F 66% 30.17 in 10.0 mi Calm Calm - N/A   Clear
7:56 PM 50.0 °F - 42.1 °F 74% 30.17 in 10.0 mi Calm Calm - N/A   Clear
8:56 PM 48.0 °F - 42.1 °F 80% 30.17 in 10.0 mi Calm Calm - N/A   Clear
10:56 PM 44.1 °F - 41.0 °F 89% 30.17 in 10.0 mi Calm Calm - N/A   Clear
11:56 PM 43.0 °F - 39.9 °F 89% 30.16 in 10.0 mi Calm Calm - N/A   Clear